Погода в Кирничках

Украина / Одесская область     45°42′24″N   29°03′48″E
темп.,
°C
ветер,
м/с
пор.,
м/с
влажн.,
%
обл.,
%
осадки,
мм/ч
давл.,
гПа
погр.,
м
3 августа, вт
вт300:00+23ссв49790 0.0 1010232
03:00+22с47842 0.0 1011144
06:00+20с6108236 0.5 1012258
09:00+24ссв786287 0.5 1014656
12:00+28ссв66470 0.0 10141261
15:00+30с64390 0.0 10131916
18:00+29ссз543899 0.0 10141745
21:00+25ссв4649100 0.0 1015126
4 августа, ср
ср400:00+23всв3454100 0.1 101689
03:00+21всв34590 0.1 101654
06:00+20всв34611 0.0 101759
09:00+26вюв34535 0.0 1018592
12:00+30юв443821 0.0 10172012
15:00+32юв563377 0.0 10152456
18:00+29юв79415 0.4 10151222
21:00+24вюв596198 1.4 1016231
5 августа, чт
чт500:00+22юв3672100 0.1 1016149
03:00+22ююв3573100 0.6 1015118
06:00+20ююв338160 0.0 101450
09:00+26ююв57555 0.0 1013585
12:00+33ю78290 0.0 10111603
15:00+34ю99290 0.0 10091752
18:00+31ю910385 0.0 10081203
21:00+25ююв8147214 0.0 1008605
6 августа, пт
пт600:00+24ююв7158254 0.0 1007551
03:00+23юв51187100 0.0 1006400
06:00+22юв5118881 0.0 1005361
09:00+28ююв8115363 0.0 1004860
12:00+33ююз893498 0.0 10041832
15:00+33ююз5538100 0.0 10031709
18:00+33юз6631100 0.0 10031632
21:00+25зсз1246100 0.0 100414
7 августа, сб
сб700:00+23ссз354991 0.0 100574
03:00+22з4561100 0.0 100685
06:00+21ссз6117587 0.2 1005262
09:00+22ссз7967100 0.2 1008551
12:00+26ссз7853100 0.0 10081082
15:00+29ссз764195 0.0 10091890
18:00+28ссз764014 0.0 10101971
21:00+23ссз510550 0.0 1011248